Terug naar catalogus

STARLINK-35518

ActiefCommunicatieVLEO
NORAD 66198·PAYLOAD·🇺🇸 United States

Gelanceerd Oct 26, 2025 vanaf Cape Canaveral Space Force Station

Loading…

Volgende Passages (komende 24 uur)

TLE

VersSource: CelesTrak SupGP

Epoch: Sep 14, 2026, 23:02 UTC

1 66198C 25243X   26257.96020833  .00027041  00000+0  79903-3 0  2570
2 66198  53.1584  85.2873 0001078  91.2824 267.0319 15.34373189    16

Volg STARLINK-35518 in realtime met AllMySat

Download on the App Store